Flag for Albania Weather past 2 weeks in Tirana, Albania

Now
48 °F

Fog.


Feels Like: 48 °F
Forecast: 45 / 58 °F
Wind: 2 mph from Southwest

Location: Tirana Airport

Current Time: Mar 1, 2015 at 10:42:18 PM

Latest Report: Mar 1, 2015 at 9:50 PM


Visibility: 1 mi

Pressure: 30.09 "Hg

Humidity: 94%

Dew point: 46 °F

Location of TiranaLocation

Historic Weather in Tirana — Graph

°F

Tirana temperature yesterday

Maximum temperature yesterday: 64 °F (at 11:50 AM)
Minimum temperature yesterday: 41 °F (at 6:20 AM)
Average temperature yesterday: 52 °F

Past Weeks' High & Low Weather Summary

 TemperatureHumidityPressure
High64 °F (Feb 24, 12:20 PM)94% (Feb 23, 7:50 AM)30.48 "Hg (Feb 23, 7:50 AM)
Low25 °F (Feb 18, 6:50 AM)10% (Feb 19, 11:20 AM)29.53 "Hg (Feb 25, 3:20 AM)
Average48 °F67%29.99 "Hg
* Reported Feb 14 9:20 PM — Mar 1 9:20 PM, Tirana, Weather by CustomWeather, © 2015

Note: Actual official high and low records may vary slightly from our data, if they occured in-between our weather recording intervals... More about our weather records

Advertising

Tirana weather history for previous 24 hours

 ConditionsComfort  
Time TempWeatherWind HumidityBarometerVisibility
9:20 PM
Sun, Mar 1
46 °FFog.2 mph93%30.09 "Hg1 mi
8:20 PM50 °FFog.No wind94%30.09 "Hg3 mi
7:50 PM50 °FPassing clouds.2 mph94%30.07 "Hg5 mi
7:20 PM52 °FPassing clouds.1 mph88%30.07 "HgN/A
6:50 PM52 °FPassing clouds.1 mph94%30.07 "Hg6 mi
6:20 PM54 °FPassing clouds.1 mph88%30.07 "HgN/A
5:50 PM52 °FPassing clouds.3 mph94%30.04 "HgN/A
5:20 PM54 °FLight rain. Partly sunny.3 mph88%30.04 "HgN/A
4:50 PM54 °FDrizzle. Partly sunny.2 mph88%30.04 "HgN/A
4:20 PM54 °FLight rain. Partly sunny.6 mph88%30.04 "HgN/A
3:50 PM54 °FLight rain. Partly sunny.5 mph82%30.04 "HgN/A
3:20 PM55 °FLight rain. Broken clouds.5 mph77%30.04 "HgN/A
2:50 PM55 °FScattered clouds.7 mph72%30.04 "HgN/A
2:20 PM57 °FScattered clouds.2 mph63%30.04 "HgN/A
1:50 PM57 °FScattered clouds.6 mph63%30.04 "HgN/A
1:20 PM57 °FScattered clouds.6 mph67%30.04 "HgN/A
12:50 PM57 °FBroken clouds.8 mph67%30.07 "HgN/A
12:20 PM59 °FBroken clouds.2 mph59%30.07 "HgN/A
11:50 AM59 °FBroken clouds.2 mph63%30.07 "HgN/A
11:20 AM57 °FBroken clouds.2 mph67%30.07 "HgN/A
10:50 AM57 °FBroken clouds.2 mph67%30.07 "HgN/A
10:20 AM55 °FPartly sunny.5 mph72%30.07 "HgN/A
9:50 AM55 °FPartly sunny.5 mph72%30.07 "HgN/A
9:20 AM54 °FBroken clouds.6 mph77%30.07 "HgN/A
8:50 AM54 °FBroken clouds.7 mph77%30.07 "HgN/A
8:20 AM52 °FBroken clouds.2 mph88%30.04 "HgN/A
7:50 AM52 °FPartly sunny.2 mph88%30.04 "HgN/A
7:20 AM50 °FPartly sunny.No wind94%30.04 "HgN/A
6:50 AM50 °FMostly cloudy.1 mph94%30.04 "HgN/A
6:20 AM50 °FMostly cloudy.2 mph88%30.04 "HgN/A
5:50 AM50 °FMostly cloudy.2 mph88%30.04 "HgN/A
5:20 AM50 °FDrizzle. Overcast.No wind94%30.04 "HgN/A
4:50 AM50 °FLight rain. Overcast.5 mph94%30.04 "HgN/A
4:20 AM50 °FLight rain. Mostly cloudy.3 mph94%30.01 "HgN/A
3:50 AM50 °FMostly cloudy.2 mph94%30.01 "HgN/A
3:20 AM50 °FMostly cloudy.2 mph94%30.01 "HgN/A
2:50 AM50 °FMostly cloudy.2 mph94%30.01 "HgN/A
2:20 AM50 °FLight rain. Mostly cloudy.5 mph94%30.01 "HgN/A
1:50 AM50 °FLight rain. Mostly cloudy.No wind94%30.01 "HgN/A
1:20 AM50 °FLight rain. Mostly cloudy.5 mph94%30.04 "HgN/A
12:50 AM52 °FLight rain. Overcast.3 mph88%30.04 "HgN/A
12:20 AM52 °FLight rain. Overcast.3 mph94%30.04 "HgN/A
11:50 PM
Sat, Feb 28
52 °FLight rain. Mostly cloudy.5 mph88%30.01 "HgN/A
11:20 PM52 °FLight rain. Overcast.6 mph88%30.01 "HgN/A
10:50 PM52 °FLight rain. Partly cloudy.5 mph88%30.01 "Hg5 mi
10:20 PM52 °FLight rain. Partly cloudy.3 mph88%30.01 "Hg5 mi
Weather by CustomWeather, © 2015

See weather overviewHow to use our weather pages